Flag for Denmark Weather past 2 weeks in Esbjerg, Denmark

45 °F

Passing clouds.

Feels Like: 38 °F
Forecast: 47 / 53 °F
Wind: 13 mph from Northeast

Location: Esbjerg Airport

Current Time: Oct 14, 2015 at 6:38:17 AM

Latest Report: Oct 14, 2015 at 6:20 AM

Visibility: N/A

Pressure: 30.21 "Hg

Humidity: 87%

Dew point: 41 °F

Location of EsbjergLocation

Historic Weather in Esbjerg — Graph


Esbjerg temperature yesterday

Maximum temperature yesterday: 48 °F (at 1:20 PM)
Minimum temperature yesterday: 41 °F (at 2:20 AM)
Average temperature yesterday: 44 °F

Past Weeks' High & Low Weather Summary

High63 °F (Oct 2, 12:50 PM)100% (Sep 29, 5:20 AM)30.74 "Hg (Sep 29, 5:20 AM)
Low37 °F (Oct 11, 1:50 AM)52% (Sep 29, 3:20 PM)29.74 "Hg (Oct 6, 2:50 PM)
Average50 °F89%30.20 "Hg
* Reported Sep 29 5:20 AM — Oct 14 5:20 AM, Esbjerg, Weather by CustomWeather, © 2015

Note: Actual official high and low records may vary slightly from our data, if they occured in-between our weather recording intervals... More about our weather records


Esbjerg weather history for previous 24 hours

Time TempWeatherWind HumidityBarometerVisibility
5:20 AM
Wed, Oct 14
45 °FPartly cloudy.13 mph93%30.24 "HgN/A
4:50 AM45 °FOvercast.14 mph93%30.24 "HgN/A
4:20 AM45 °FPassing clouds.10 mph93%30.24 "HgN/A
3:50 AM45 °FPassing clouds.10 mph87%30.24 "HgN/A
3:20 AM43 °FPartly cloudy.10 mph93%30.24 "HgN/A
2:50 AM45 °FPassing clouds.9 mph93%30.24 "HgN/A
2:20 AM43 °FPassing clouds.9 mph93%30.24 "HgN/A
1:50 AM43 °FPassing clouds.10 mph93%30.24 "HgN/A
1:20 AM43 °FPassing clouds.10 mph93%30.24 "HgN/A
12:50 AM45 °FPartly cloudy.9 mph93%30.24 "HgN/A
12:20 AM45 °FPassing clouds.9 mph93%30.24 "HgN/A
11:20 PM
Tue, Oct 13
45 °FSprinkles. Passing clouds.10 mph93%30.24 "HgN/A
10:50 PM45 °FPassing clouds.8 mph93%30.24 "HgN/A
10:20 PM45 °FPassing clouds.8 mph93%30.24 "HgN/A
9:50 PM45 °FDrizzle. Overcast.10 mph93%30.24 "HgN/A
9:20 PM45 °FPassing clouds.13 mph93%30.24 "HgN/A
8:50 PM45 °FPassing clouds.12 mph93%30.24 "HgN/A
8:20 PM45 °FPassing clouds.10 mph93%30.24 "HgN/A
7:50 PM45 °FPassing clouds.9 mph93%30.24 "HgN/A
7:20 PM45 °FPartly sunny.9 mph93%30.24 "HgN/A
6:50 PM45 °FPartly sunny.10 mph93%30.24 "HgN/A
6:20 PM45 °FPartly sunny.10 mph93%30.21 "HgN/A
5:50 PM45 °FPartly sunny.10 mph93%30.24 "HgN/A
5:20 PM45 °FBroken clouds.10 mph93%30.24 "HgN/A
4:50 PM45 °FSprinkles. Partly sunny.9 mph93%30.24 "HgN/A
4:20 PM45 °FRain showers. Partly sunny.12 mph93%30.24 "HgN/A
3:50 PM46 °FSprinkles. Partly sunny.12 mph87%30.24 "HgN/A
3:20 PM46 °FSprinkles. Partly sunny.12 mph87%30.24 "HgN/A
2:50 PM46 °FDrizzle. Broken clouds.17 mph87%30.24 "HgN/A
2:20 PM46 °FPartly sunny.14 mph82%30.24 "HgN/A
1:50 PM46 °FPartly sunny.12 mph82%30.24 "HgN/A
1:20 PM48 °FPartly sunny.15 mph82%30.27 "HgN/A
12:50 PM46 °FPartly sunny.15 mph82%30.27 "HgN/A
12:20 PM46 °FBroken clouds.13 mph82%30.27 "HgN/A
11:50 AM46 °FPartly sunny.13 mph82%30.27 "HgN/A
11:20 AM46 °FPartly sunny.14 mph82%30.27 "HgN/A
10:50 AM45 °FPartly sunny.12 mph81%30.27 "HgN/A
10:20 AM43 °FPartly sunny.12 mph87%30.27 "HgN/A
9:50 AM43 °FScattered clouds.10 mph81%30.27 "HgN/A
9:20 AM43 °FOvercast.9 mph81%30.27 "HgN/A
8:50 AM43 °FPassing clouds.8 mph81%30.27 "HgN/A
8:20 AM43 °FPassing clouds.9 mph81%30.27 "HgN/A
7:50 AM43 °FPassing clouds.9 mph81%30.27 "HgN/A
7:20 AM43 °FPassing clouds.8 mph81%30.27 "HgN/A
6:50 AM43 °FPassing clouds.10 mph81%30.24 "HgN/A
6:20 AM43 °FSprinkles. Passing clouds.9 mph81%30.24 "HgN/A
Weather by CustomWeather, © 2015

See weather overviewHow to use our weather pages